[[{"header":{"parameterUnit":"m.s-1","parameterCategory":2,"la1":30.2991,"la2":30.254,"lo1":-89.0895,"lo2":-89.0444,"dy":0.0017,"dx":0.0017,"nx":28,"ny":28,"refTime":"2024-07-15T03:00:00:Z","depth":"0","parameterNumber":2,"parameterNumberName":"U-component_of_CURRENTS"},"data":[0,0,0,0,0,0,0,0,0,0,0,0,0,0,0,0,0,0,0,0,0,0,0,0,0,0,0,0,0,0,0,0,0,0,0,0,0,0,0,0,0,0,0,0,0,0,0,0,0,0,0,0,0,0,0,0,0,0,0.1798,0.1799,0,0.1864,0.1864,0.1865,0.1867,0.1867,0.1866,0.1866,0.1943,0.1945,0.1948,0,0,0,0,0,0,0,0,0,0,0,0,0,0.1713,0.1714,0.1798,0.1799,0.1801,0.1864,0.1864,0.1865,0.1867,0.1867,0.1866,0.1866,0.1942,0.1945,0.1948,0,0,0,0,0,0,0,0,0,0,0,0,0,0.1757,0.1714,0.1798,0.1812,0.1815,0.1864,0.1864,0.1865,0.1867,0.1867,0.1866,0.1865,0.1941,0.1945,0.1948,0.1984,0,0,0.196,0.1961,0,0,0,0,0,0,0,0,0.1755,0.176,0.1809,0.1811,0.1814,0.186,0.1863,0.1907,0.1867,0.1843,0.1866,0.1865,0.192,0.1925,0.1933,0.1988,0.1991,0.196,0.1962,0.1964,0.1965,0,0,0,0,0,0,0,0.1752,0.1757,0.182,0.181,0.1814,0.1829,0.1834,0.1871,0.1881,0.1845,0.1846,0.186,0.192,0.1929,0.1935,0.1992,0.196,0.1963,0.1965,0.1967,0.2118,0.212,0,0,0,0,0,0,0.1751,0.1754,0.1818,0.1823,0.1787,0.1831,0.1836,0.1843,0.1881,0.1887,0.1861,0.186,0.1923,0.193,0.1938,0.2029,0.1964,0.1967,0.1969,0.2116,0.2118,0.212,0,0,0,0,0,0,0.1748,0.1755,0.1816,0.1794,0.1803,0.1833,0.1841,0.1845,0.1854,0.1893,0.1898,0.1866,0.1923,0.1932,0.1988,0.203,0.1969,0.1972,0.2114,0.2117,0.2119,0.2181,0,0,0,0,0,0,0.1745,0.1754,0.1759,0.1793,0.1804,0.1844,0.1842,0.1846,0.1865,0.1865,0.19,0.1906,0.1923,0.1983,0.1992,0.2034,0.1975,0.2112,0.2115,0.2118,0.2177,0.2185,0.2193,0,0,0,0,0,0.1742,0.1753,0.1758,0.1767,0.1809,0.1845,0.1851,0.1868,0.1866,0.1872,0.191,0.1905,0.201,0.1988,0.1998,0.2042,0.211,0.2114,0.2118,0.2173,0.2184,0.2193,0,0,0,0,0,0,0.1723,0.1756,0.1762,0.1784,0.1811,0.1846,0.1859,0.187,0.1903,0.1906,0.1932,0.1943,0.2014,0.2015,0.1989,0.2094,0.2058,0.2065,0.2097,0.2107,0.2115,0.2116,0.1978,0,0,0,0,0,0.1721,0.1734,0.177,0.1787,0.18,0.1829,0.1846,0.186,0.1895,0.1907,0.1936,0.1977,0.204,0.206,0.2107,0.2158,0.218,0.2191,0.2199,0.2206,0.2214,0.2294,0.231,0.2133,0.2133,0.2133,0,0,0.172,0.1741,0.1749,0.1784,0.1805,0.1837,0.1836,0.1865,0.1904,0.1914,0.1971,0.2013,0.2063,0.2134,0.2163,0.2137,0.2268,0.2211,0.2217,0.2221,0.23,0.2317,0.2332,0.2136,0.2136,0.2135,0,0,0.1727,0.174,0.1753,0.1779,0.1817,0.1843,0.1852,0.1891,0.1917,0.1979,0.2013,0.2077,0.2141,0.2197,0.2233,0.2311,0.2319,0.2319,0.2353,0.2431,0.2446,0.246,0.2509,0.2526,0.2311,0.2311,0.2311,0,0.1722,0.1745,0.1764,0.1789,0.1817,0.1846,0.1875,0.1917,0.1974,0.201,0.2002,0.2142,0.2179,0.2293,0.2323,0.2333,0.2364,0.2312,0.2442,0.2456,0.2469,0.2516,0.2535,0.2314,0.2314,0.2313,0.2313,0,0.1743,0.1763,0.1775,0.1817,0.185,0.1879,0.194,0.1983,0.2018,0.2061,0.2168,0.223,0.2307,0.2337,0.2359,0.2476,0.2464,0.2454,0.2417,0.2491,0.2535,0.2554,0.2319,0.2318,0.2317,0.2316,0,0,0.1721,0.1776,0.1779,0.1798,0.1865,0.1892,0.1975,0.2052,0.2105,0.2174,0.2251,0.2371,0.2394,0.2437,0.2476,0.2542,0.2665,0.2535,0.2537,0.2582,0.2825,0.2817,0.2836,0.268,0.2683,0.2686,0.2819,0,0.1727,0.1764,0.1803,0.1851,0.1874,0.194,0.2009,0.209,0.2159,0.2241,0.2333,0.2419,0.2436,0.2478,0.2556,0.2648,0.2716,0.2629,0.2748,0.2751,0.2735,0.2859,0.2783,0.2896,0.2836,0.2839,0.2842,0,0.173,0.1756,0.1792,0.186,0.1877,0.1917,0.2025,0.2093,0.2227,0.228,0.2385,0.2455,0.2594,0.2577,0.2773,0.2717,0.2779,0.2833,0.2839,0.2823,0.2778,0.2814,0.2931,0.2754,0.287,0.2867,0.2865,0,0.1688,0.1748,0.177,0.1793,0.188,0.1918,0.1974,0.2097,0.2164,0.2305,0.2364,0.2524,0.2607,0.273,0.2861,0.2827,0.3054,0.3014,0.3064,0.3062,0.3017,0.3006,0.2977,0.3147,0.3147,0.3146,0.3146,0,0.1672,0.1692,0.1745,0.1758,0.1799,0.1875,0.1943,0.2026,0.215,0.2237,0.2369,0.2471,0.2652,0.2803,0.2897,0.3057,0.3091,0.3107,0.3118,0.3035,0.3025,0.2881,0.2804,0.3151,0.315,0.3149,0.3148,0,0.1622,0.1656,0.1683,0.1754,0.1773,0.1801,0.1902,0.1963,0.208,0.2201,0.2252,0.2461,0.2668,0.2839,0.305,0.3101,0.3152,0.328,0.3162,0.3157,0.3015,0.2946,0.2899,0.2839,0.3361,0.3362,0.3362,0,0.1599,0.1602,0.1654,0.1665,0.1691,0.1742,0.1787,0.1909,0.1981,0.2198,0.2257,0.2491,0.2653,0.2959,0.3136,0.3326,0.3182,0.3317,0.3243,0.303,0.2962,0.2818,0.276,0.3205,0.3204,0.3204,0.3204,0,0.1557,0.1569,0.1591,0.1609,0.1638,0.168,0.1752,0.1795,0.196,0.2075,0.2251,0.2397,0.2723,0.2902,0.3153,0.3269,0.3126,0.3311,0.3136,0.2892,0.2692,0.263,0.3064,0.3199,0.32,0.32,0.32,0.32,0.1521,0.1522,0.1544,0.1564,0.1588,0.1618,0.1645,0.1737,0.1841,0.2013,0.2179,0.2365,0.2618,0.2985,0.3103,0.3148,0.3115,0.3034,0.2987,0.2873,0.2755,0.3172,0.3286,0.3287,0.3287,0.3288,0.3289,0,0.1491,0.1499,0.1505,0.1528,0.1533,0.1568,0.163,0.1666,0.176,0.1923,0.2077,0.2304,0.2481,0.2696,0.2859,0.28,0.2734,0.2687,0.2442,0.242,0.2837,0.2765,0.2715,0.2715,0.2715,0.2715,0.2715,0.2715,0.1479,0.148,0.149,0.148,0.1487,0.15,0.1524,0.1577,0.1673,0.1806,0.192,0.2057,0.2236,0.2338,0.2363,0.2376,0.2186,0.2103,0.2061,0.2292,0.2318,0.2342,0.2252,0.2095,0.2095,0.1569,0.1565,0.1562]},{"header":{"parameterUnit":"m.s-1","parameterCategory":2,"la1":30.2991,"la2":30.254,"lo1":-89.0895,"lo2":-89.0444,"dy":0.0017,"dx":0.0017,"nx":28,"ny":28,"refTime":"2024-07-15T03:00:00:Z","depth":"0","parameterNumber":3,"parameterNumberName":"V-component_of_CURRENTS"},"data":[0,0,0,0,0,0,0,0,0,0,0,0,0,0,0,0,0,0,0,0,0,0,0,0,0,0,0,0,0,0,0,0,0,0,0,0,0,0,0,0,0,0,0,0,0,0,0,0,0,0,0,0,0,0,0,0,0,0,0.1238,0.1239,0,0.1219,0.1218,0.1218,0.1188,0.1188,0.1188,0.1188,0.1093,0.109,0.1088,0,0,0,0,0,0,0,0,0,0,0,0,0,0.1182,0.1183,0.1238,0.1239,0.1239,0.1219,0.1218,0.1218,0.1188,0.1188,0.1188,0.1188,0.1094,0.1091,0.1087,0,0,0,0,0,0,0,0,0,0,0,0,0,0.1183,0.1184,0.1238,0.1227,0.1226,0.122,0.1218,0.1217,0.1188,0.1188,0.1188,0.1188,0.1095,0.1091,0.1087,0.1062,0,0,0.1075,0.1074,0,0,0,0,0,0,0,0,0.1183,0.1185,0.1228,0.1227,0.1227,0.1212,0.1164,0.1164,0.1188,0.1195,0.1188,0.1188,0.113,0.1123,0.1111,0.1057,0.1053,0.1075,0.1072,0.1071,0.107,0,0,0,0,0,0,0,0.1183,0.1185,0.1224,0.1229,0.1228,0.12,0.12,0.1163,0.1156,0.1195,0.1194,0.1202,0.1128,0.1115,0.1108,0.1052,0.1075,0.1072,0.1069,0.1068,0.0962,0.0962,0,0,0,0,0,0,0.1202,0.1185,0.1225,0.1224,0.1212,0.1201,0.1201,0.1211,0.1158,0.1152,0.1202,0.1201,0.1121,0.1113,0.1105,0.1085,0.1071,0.1067,0.1065,0.0963,0.0962,0.0961,0,0,0,0,0,0,0.1201,0.1206,0.1226,0.1209,0.1211,0.1204,0.1214,0.1211,0.1195,0.1166,0.1157,0.119,0.1121,0.111,0.1071,0.1081,0.1065,0.1062,0.0963,0.0962,0.0962,0.1037,0,0,0,0,0,0,0.12,0.1206,0.121,0.1211,0.1213,0.1217,0.1215,0.1211,0.1203,0.1201,0.1153,0.1144,0.112,0.1077,0.1068,0.1075,0.1059,0.0964,0.0963,0.0962,0.1035,0.1039,0.1042,0,0,0,0,0,0.1198,0.1207,0.1211,0.1216,0.1223,0.1218,0.1214,0.1205,0.1203,0.1191,0.1164,0.1146,0.1065,0.1074,0.1062,0.1069,0.0964,0.0963,0.0962,0.1034,0.1038,0.1042,0,0,0,0,0,0,0.1177,0.1206,0.1209,0.1225,0.1221,0.1215,0.1215,0.1204,0.1173,0.1175,0.1137,0.1126,0.1099,0.1064,0.1076,0.1033,0.1012,0.1008,0.107,0.1074,0.1077,0.1103,0.1056,0,0,0,0,0,0.118,0.1197,0.1209,0.1217,0.1226,0.1218,0.1214,0.1208,0.119,0.1177,0.1147,0.1113,0.1085,0.1065,0.1033,0.1004,0.0971,0.0998,0.1002,0.1006,0.1016,0.0965,0.0965,0.0958,0.0958,0.0958,0,0,0.1175,0.1192,0.1201,0.1214,0.1218,0.1226,0.1214,0.1216,0.1215,0.1171,0.1155,0.1124,0.108,0.1058,0.1041,0.103,0.099,0.1004,0.1008,0.1017,0.0964,0.0965,0.0966,0.0957,0.0957,0.0957,0,0,0.1175,0.1192,0.1209,0.1214,0.1227,0.1227,0.1229,0.1225,0.1217,0.1197,0.1173,0.1147,0.1095,0.1075,0.1056,0.1052,0.1013,0.1038,0.1076,0.1026,0.1027,0.1027,0.0994,0.099,0.1038,0.1038,0.1038,0,0.1165,0.1195,0.1206,0.1223,0.1238,0.1232,0.1249,0.1238,0.1215,0.1216,0.1199,0.1145,0.1108,0.109,0.1095,0.1064,0.1032,0.107,0.1034,0.1033,0.1032,0.0997,0.0992,0.1041,0.1041,0.1041,0.104,0,0.1182,0.1203,0.1215,0.1244,0.1252,0.1265,0.1272,0.1271,0.1266,0.1255,0.1238,0.119,0.1159,0.1143,0.1121,0.1101,0.108,0.1049,0.1031,0.1038,0.1,0.0994,0.1046,0.1045,0.1044,0.1043,0,0,0.1169,0.122,0.1223,0.1246,0.1271,0.1281,0.1298,0.1311,0.1325,0.1294,0.1303,0.1257,0.1237,0.1213,0.1178,0.114,0.1108,0.11,0.1096,0.1083,0.1009,0.0995,0.0987,0.1071,0.107,0.1069,0.0988,0,0.118,0.122,0.1244,0.1279,0.1307,0.1324,0.1339,0.1347,0.1348,0.1349,0.1314,0.1301,0.126,0.1253,0.1209,0.1141,0.1094,0.1134,0.099,0.0986,0.0987,0.098,0.1009,0.0939,0.0982,0.0981,0.098,0,0.1191,0.1224,0.1264,0.1318,0.1333,0.1349,0.1396,0.1406,0.1412,0.1413,0.14,0.1371,0.1336,0.1288,0.1175,0.1203,0.1112,0.105,0.1044,0.1004,0.0961,0.0935,0.0926,0.0812,0.097,0.0971,0.0972,0,0.1183,0.1238,0.1275,0.1292,0.1345,0.1372,0.14,0.1423,0.1448,0.1456,0.1475,0.1419,0.1399,0.1289,0.118,0.117,0.1049,0.1008,0.0907,0.0906,0.0889,0.0887,0.0767,0.0905,0.0906,0.0906,0.0906,0,0.1188,0.1217,0.1276,0.1296,0.1345,0.1382,0.1432,0.1452,0.149,0.1525,0.1504,0.1521,0.1396,0.1323,0.12,0.1053,0.1055,0.0919,0.0882,0.0915,0.0917,0.0782,0.0724,0.0903,0.0903,0.0904,0.0904,0,0.1167,0.1202,0.1248,0.1316,0.1341,0.1373,0.1459,0.1499,0.1534,0.1583,0.1594,0.1587,0.1506,0.1377,0.1207,0.1084,0.0888,0.0877,0.0939,0.0911,0.0707,0.0653,0.0529,0.0512,0.0749,0.0748,0.0747,0,0.1156,0.1179,0.1256,0.1286,0.1319,0.1384,0.1437,0.1505,0.1561,0.1628,0.1657,0.1618,0.1609,0.1383,0.1174,0.0964,0.086,0.0824,0.0799,0.0703,0.0615,0.0606,0.06,0.0805,0.0805,0.0805,0.0805,0,0.1139,0.1165,0.1205,0.1271,0.133,0.1408,0.1494,0.1545,0.1633,0.1695,0.1755,0.1761,0.1594,0.1411,0.1142,0.1002,0.0784,0.0812,0.0689,0.0632,0.0639,0.0603,0.0859,0.0803,0.0803,0.0803,0.0804,0.0804,0.1116,0.1139,0.1192,0.1255,0.1327,0.1418,0.1481,0.1583,0.1678,0.1778,0.1809,0.184,0.161,0.1269,0.1089,0.0747,0.0747,0.061,0.0549,0.0546,0.0541,0.0806,0.0722,0.0722,0.0721,0.0721,0.0721,0,0.1082,0.1122,0.1178,0.1256,0.1329,0.1383,0.1513,0.1585,0.1694,0.1799,0.1872,0.1783,0.1498,0.1206,0.0742,0.0508,0.0494,0.0378,0.0364,0.0367,0.0571,0.0586,0.05,0.05,0.05,0.05,0.05,0.05,0.1064,0.11,0.1142,0.1237,0.1302,0.14,0.1472,0.1589,0.1686,0.1785,0.1811,0.1844,0.1585,0.0827,0.0337,0.0256,0.0143,0.0111,0.0038,0.0152,0.0169,0.0186,0.0185,0.0016,0.0015,-0.0093,-0.0095,-0.0096]}],[{"header":{"parameterUnit":"m.s-1","parameterCategory":2,"la1":30.2991,"la2":30.254,"lo1":-89.0895,"lo2":-89.0444,"dy":0.0017,"dx":0.0017,"nx":28,"ny":28,"refTime":"2024-07-15T03:00:00:Z","depth":"2","parameterNumber":2,"parameterNumberName":"U-component_of_CURRENTS"},"data":[0,0,0,0,0,0,0,0,0,0,0,0,0,0,0,0,0,0,0,0,0,0,0,0,0,0,0,0,0,0,0,0,0,0,0,0,0,0,0,0,0,0,0,0,0,0,0,0,0,0,0,0,0,0,0,0,0,0,0.1372,0.1372,0,0.1388,0.1388,0.1389,0.1436,0.1437,0.1437,0.1438,0.1443,0.1442,0.1442,0,0,0,0,0,0,0,0,0,0,0,0,0,0.1355,0.1355,0.1372,0.1372,0.1372,0.1388,0.1388,0.1389,0.1436,0.1437,0.1438,0.1439,0.1443,0.1442,0.1441,0,0,0,0,0,0,0,0,0,0,0,0,0,0.1368,0.1355,0.1372,0.1396,0.1398,0.1388,0.1388,0.1389,0.1435,0.1437,0.1438,0.1439,0.1443,0.1442,0.1441,0.1411,0,0,0.1438,0.1438,0,0,0,0,0,0,0,0,0.1367,0.1369,0.1392,0.1394,0.1396,0.1409,0.1384,0.1395,0.1435,0.1424,0.1438,0.144,0.1428,0.1428,0.1432,0.1411,0.1411,0.1438,0.1438,0.1437,0.1437,0,0,0,0,0,0,0,0.1366,0.1368,0.1381,0.1392,0.1395,0.1396,0.1399,0.1386,0.142,0.1425,0.1428,0.1425,0.143,0.1433,0.1433,0.1412,0.1438,0.1438,0.1437,0.1437,0.1453,0.1454,0,0,0,0,0,0,0.136,0.1367,0.138,0.1381,0.1382,0.1395,0.1399,0.1406,0.1421,0.1424,0.1424,0.1427,0.1434,0.1434,0.1433,0.1466,0.1437,0.1437,0.1436,0.1452,0.1453,0.1454,0,0,0,0,0,0,0.1359,0.1361,0.138,0.1372,0.1375,0.1394,0.1401,0.1405,0.143,0.142,0.1424,0.1446,0.1435,0.1434,0.1452,0.1464,0.1436,0.1435,0.1451,0.1452,0.1454,0.1488,0,0,0,0,0,0,0.1359,0.1361,0.1366,0.1372,0.1375,0.1391,0.1399,0.1405,0.1424,0.1429,0.1439,0.144,0.1436,0.1454,0.1452,0.1462,0.1434,0.1449,0.1451,0.1453,0.1486,0.1491,0.1495,0,0,0,0,0,0.1358,0.1355,0.1366,0.1368,0.138,0.1391,0.1393,0.1412,0.1424,0.1438,0.1454,0.1441,0.1464,0.1454,0.1451,0.1462,0.1449,0.1451,0.1453,0.1484,0.149,0.1495,0,0,0,0,0,0,0.1353,0.1359,0.1372,0.1373,0.139,0.1399,0.1406,0.1419,0.1442,0.1454,0.145,0.1452,0.1468,0.1463,0.1452,0.1474,0.1455,0.1457,0.148,0.1485,0.1489,0.1481,0.1434,0,0,0,0,0,0.1351,0.1354,0.1367,0.1372,0.138,0.1398,0.1405,0.1424,0.1439,0.1452,0.1466,0.1475,0.1469,0.1479,0.1476,0.1487,0.148,0.1494,0.1498,0.1502,0.1495,0.1502,0.1506,0.1462,0.1462,0.1462,0,0,0.1348,0.1355,0.1355,0.1371,0.1386,0.1394,0.1407,0.1428,0.1441,0.1445,0.148,0.1487,0.1474,0.1491,0.1498,0.1493,0.1516,0.1505,0.1508,0.1499,0.1504,0.1508,0.1512,0.1463,0.1463,0.1463,0,0,0.1343,0.1355,0.1358,0.1375,0.14,0.1404,0.1414,0.1445,0.1467,0.1498,0.1498,0.1519,0.153,0.1525,0.1517,0.1543,0.1533,0.1551,0.1573,0.158,0.1583,0.1586,0.1598,0.1601,0.1561,0.1561,0.1561,0,0.1343,0.1349,0.1362,0.1377,0.1388,0.1409,0.1422,0.1436,0.1476,0.1495,0.1518,0.1542,0.1539,0.1532,0.1552,0.155,0.156,0.1551,0.1585,0.1587,0.1589,0.1601,0.1604,0.1563,0.1563,0.1562,0.1562,0,0.134,0.1356,0.1361,0.1382,0.1397,0.1413,0.1433,0.1464,0.1496,0.1515,0.1549,0.1561,0.158,0.1582,0.1576,0.1588,0.1593,0.1583,0.1568,0.1596,0.1606,0.1609,0.1566,0.1565,0.1564,0.1564,0,0,0.1309,0.135,0.1351,0.1373,0.1405,0.1415,0.1439,0.1461,0.1478,0.1533,0.1559,0.1571,0.1601,0.1595,0.1597,0.1607,0.1639,0.1613,0.1613,0.162,0.1669,0.1644,0.1645,0.1644,0.1644,0.1645,0.1675,0,0.1305,0.1331,0.1349,0.1373,0.1391,0.1424,0.1439,0.1469,0.1502,0.1535,0.1558,0.1583,0.1595,0.162,0.1632,0.1631,0.1647,0.1632,0.1644,0.1644,0.1615,0.1647,0.1396,0.14,0.1678,0.1678,0.1678,0,0.1302,0.1314,0.1344,0.1384,0.1394,0.1411,0.1447,0.1469,0.1507,0.1545,0.1585,0.1602,0.1629,0.1636,0.1662,0.166,0.1671,0.167,0.1672,0.1633,0.1624,0.1414,0.1394,0.1683,0.1682,0.1682,0.1682,0,0.1278,0.1316,0.1338,0.1354,0.1394,0.142,0.1441,0.1481,0.1499,0.156,0.1587,0.1622,0.1649,0.1669,0.1693,0.1686,0.1714,0.1701,0.1684,0.1683,0.146,0.1439,0.1712,0.1712,0.1712,0.1712,0.1712,0,0.1265,0.128,0.1336,0.1343,0.1367,0.1416,0.1441,0.1479,0.152,0.1531,0.1597,0.1609,0.1661,0.1683,0.17,0.171,0.1728,0.1688,0.1688,0.1469,0.1449,0.1681,0.1677,0.1713,0.1713,0.1713,0.1713,0,0.123,0.1272,0.1293,0.1337,0.1362,0.1381,0.1432,0.1442,0.1507,0.1526,0.155,0.1608,0.1655,0.1695,0.1724,0.1715,0.1726,0.1723,0.1473,0.1443,0.1687,0.1685,0.1701,0.1701,0.17,0.17,0.1699,0,0.1208,0.1226,0.1274,0.1297,0.1319,0.1359,0.1381,0.1437,0.1444,0.1508,0.1504,0.1572,0.158,0.1636,0.1604,0.1622,0.1726,0.1452,0.1388,0.1688,0.1686,0.1684,0.1682,0.1109,0.1104,0.1099,0.1096,0,0.1152,0.1184,0.1196,0.1238,0.1271,0.129,0.1327,0.1321,0.1376,0.1393,0.1417,0.1431,0.1455,0.1363,0.1407,0.1377,0.1431,0.137,0.1724,0.1169,0.1136,0.1133,0.1148,0.1058,0.1062,0.1065,0.1067,0.1068,0.1113,0.1108,0.1143,0.1191,0.1218,0.1223,0.1208,0.1225,0.1218,0.1211,0.1271,0.1235,0.1161,0.11,0.1112,0.1135,0.1206,0.1148,0.1157,0.1171,0.1116,0.1086,0.0988,0.0991,0.0994,0.0997,0.0999,0,0.1063,0.1086,0.1103,0.1129,0.112,0.1178,0.1173,0.1124,0.1085,0.1066,0.1067,0.0867,0.0785,0.0832,0.0763,0.0777,0.0732,0.0804,0.0708,0.0739,0.0768,0.0693,0.0453,0.0454,0.0454,0.0455,0,0,0.104,0.1034,0.1053,0.1044,0.1073,0.1041,0.1035,0.0965,0.0918,0.0803,0.0744,0.0699,0.0693,0.0543,0.0505,0.0511,0.0642,0.0484,0.0879,0.0787,0.0819,0.088,0.0788,0,0,0,0,0]},{"header":{"parameterUnit":"m.s-1","parameterCategory":2,"la1":30.2991,"la2":30.254,"lo1":-89.0895,"lo2":-89.0444,"dy":0.0017,"dx":0.0017,"nx":28,"ny":28,"refTime":"2024-07-15T03:00:00:Z","depth":"2","parameterNumber":3,"parameterNumberName":"V-component_of_CURRENTS"},"data":[0,0,0,0,0,0,0,0,0,0,0,0,0,0,0,0,0,0,0,0,0,0,0,0,0,0,0,0,0,0,0,0,0,0,0,0,0,0,0,0,0,0,0,0,0,0,0,0,0,0,0,0,0,0,0,0,0,0,-0.038,-0.0382,0,-0.0488,-0.0489,-0.049,-0.0442,-0.0439,-0.0437,-0.0435,-0.0535,-0.0539,-0.0544,0,0,0,0,0,0,0,0,0,0,0,0,0,-0.0247,-0.0249,-0.038,-0.0382,-0.0384,-0.0488,-0.0489,-0.049,-0.0442,-0.0439,-0.0437,-0.0434,-0.0533,-0.0539,-0.0545,0,0,0,0,0,0,0,0,0,0,0,0,0,-0.0321,-0.025,-0.038,-0.0375,-0.0376,-0.0488,-0.0489,-0.0491,-0.0443,-0.0439,-0.0436,-0.0433,-0.0531,-0.0538,-0.0545,-0.0658,0,0,-0.0567,-0.057,0,0,0,0,0,0,0,0,-0.0316,-0.0325,-0.0374,-0.0376,-0.0377,-0.0452,-0.048,-0.0548,-0.0444,-0.0413,-0.0435,-0.0431,-0.0512,-0.0521,-0.0542,-0.0662,-0.0667,-0.0568,-0.0572,-0.0575,-0.0577,0,0,0,0,0,0,0,-0.0311,-0.0321,-0.0418,-0.0377,-0.0379,-0.0408,-0.0413,-0.0492,-0.0476,-0.0415,-0.0413,-0.0433,-0.0511,-0.0535,-0.0544,-0.0668,-0.0568,-0.0574,-0.0578,-0.0581,-0.0771,-0.0771,0,0,0,0,0,0,-0.0305,-0.0316,-0.0415,-0.0422,-0.0343,-0.0413,-0.0419,-0.0428,-0.0476,-0.0481,-0.0436,-0.0431,-0.0525,-0.0536,-0.0547,-0.0584,-0.0575,-0.0582,-0.0586,-0.077,-0.0771,-0.0772,0,0,0,0,0,0,-0.0302,-0.0313,-0.0411,-0.0375,-0.039,-0.0419,-0.043,-0.0432,-0.0401,-0.0493,-0.0496,-0.0397,-0.0522,-0.0537,-0.0574,-0.0591,-0.0585,-0.0592,-0.0769,-0.077,-0.0771,-0.0721,0,0,0,0,0,0,-0.0297,-0.0311,-0.0296,-0.0375,-0.0392,-0.0435,-0.0434,-0.0437,-0.0425,-0.0417,-0.0462,-0.0471,-0.0521,-0.0563,-0.0581,-0.0601,-0.0597,-0.0768,-0.077,-0.0771,-0.0722,-0.0721,-0.0719,0,0,0,0,0,-0.0292,-0.0305,-0.0295,-0.0306,-0.0378,-0.0435,-0.0445,-0.0452,-0.0425,-0.041,-0.044,-0.0466,-0.0584,-0.0569,-0.0591,-0.0612,-0.0768,-0.0769,-0.0771,-0.0723,-0.0721,-0.0719,0,0,0,0,0,0,-0.0235,-0.0305,-0.0294,-0.0322,-0.035,-0.0427,-0.0433,-0.0428,-0.0441,-0.0419,-0.0481,-0.0494,-0.0528,-0.0581,-0.0562,-0.0671,-0.068,-0.0686,-0.0636,-0.0636,-0.0634,-0.0615,-0.0603,0,0,0,0,0,-0.022,-0.0241,-0.0299,-0.0311,-0.0329,-0.0365,-0.0382,-0.0376,-0.0415,-0.0412,-0.0428,-0.0479,-0.0568,-0.06,-0.0655,-0.0728,-0.075,-0.0755,-0.0753,-0.0752,-0.0751,-0.0802,-0.0805,-0.0777,-0.0777,-0.0777,0,0,-0.0202,-0.0243,-0.0251,-0.03,-0.0328,-0.0357,-0.0363,-0.0374,-0.0385,-0.043,-0.0416,-0.0459,-0.0579,-0.0643,-0.0667,-0.0683,-0.0766,-0.0754,-0.0752,-0.0752,-0.0804,-0.0807,-0.0809,-0.0778,-0.0778,-0.0778,0,0,-0.0196,-0.021,-0.0224,-0.0245,-0.0276,-0.0319,-0.0305,-0.0328,-0.0321,-0.0337,-0.0382,-0.042,-0.0512,-0.0603,-0.0679,-0.071,-0.0743,-0.0728,-0.0728,-0.0778,-0.078,-0.0783,-0.0784,-0.0787,-0.0745,-0.0745,-0.0745,0,-0.0155,-0.0191,-0.0232,-0.0246,-0.0271,-0.0293,-0.0305,-0.0332,-0.0341,-0.0355,-0.031,-0.0443,-0.0507,-0.0668,-0.0672,-0.0707,-0.0721,-0.0725,-0.0774,-0.0777,-0.0781,-0.0782,-0.0786,-0.0743,-0.0743,-0.0743,-0.0744,0,-0.0171,-0.0175,-0.0191,-0.0223,-0.025,-0.0264,-0.0315,-0.03,-0.0286,-0.031,-0.0363,-0.0437,-0.0519,-0.056,-0.0635,-0.0723,-0.0717,-0.0748,-0.0771,-0.078,-0.0781,-0.0786,-0.074,-0.0741,-0.0741,-0.0742,0,0,-0.0148,-0.0189,-0.0187,-0.0186,-0.0233,-0.026,-0.0295,-0.0355,-0.0371,-0.0357,-0.0389,-0.0519,-0.0509,-0.0593,-0.0674,-0.073,-0.0751,-0.0746,-0.0749,-0.0733,-0.0822,-0.0707,-0.0701,-0.0789,-0.0791,-0.0792,-0.0802,0,-0.0139,-0.015,-0.0191,-0.0202,-0.0218,-0.0256,-0.0297,-0.0336,-0.0363,-0.0381,-0.0469,-0.0518,-0.0551,-0.0576,-0.0638,-0.0729,-0.0767,-0.0743,-0.0829,-0.0831,-0.0717,-0.0705,-0.0679,-0.0676,-0.0807,-0.0808,-0.0808,0,-0.0125,-0.0158,-0.0144,-0.0191,-0.0204,-0.02,-0.0266,-0.0299,-0.0374,-0.0383,-0.0439,-0.0494,-0.0596,-0.0591,-0.0725,-0.0705,-0.0749,-0.0802,-0.0805,-0.072,-0.0725,-0.0698,-0.0681,-0.0817,-0.0816,-0.0816,-0.0815,0,-0.0085,-0.0117,-0.0103,-0.011,-0.017,-0.0161,-0.0195,-0.0264,-0.031,-0.036,-0.0374,-0.0492,-0.0522,-0.0614,-0.0696,-0.0716,-0.0802,-0.0851,-0.0789,-0.078,-0.0786,-0.0774,-0.0923,-0.0923,-0.0923,-0.0923,-0.0923,0,-0.0066,-0.0059,-0.0054,-0.0056,-0.0057,-0.0093,-0.0119,-0.0152,-0.0219,-0.0267,-0.0343,-0.0381,-0.0526,-0.06,-0.068,-0.0716,-0.0783,-0.0771,-0.0778,-0.0762,-0.0749,-0.0906,-0.0904,-0.0923,-0.0923,-0.0923,-0.0923,0,-0.0025,-0.0001,-0.0001,-0.0032,-0.0018,-0.0007,-0.0066,-0.0113,-0.0139,-0.0194,-0.0205,-0.0304,-0.0361,-0.0492,-0.0624,-0.0667,-0.0739,-0.0736,-0.0669,-0.0666,-0.069,-0.0686,-0.0682,-0.0678,-0.0675,-0.0672,-0.0669,0,-0.001,0.0015,0.0024,0.0061,0.0068,0.0064,0.0039,-0.0038,-0.0094,-0.0141,-0.0164,-0.0217,-0.0237,-0.0342,-0.0427,-0.0511,-0.0622,-0.0561,-0.0599,-0.0659,-0.0668,-0.0668,-0.0669,-0.0591,-0.0589,-0.0586,-0.0585,0,-0.0024,0.0026,0.0012,0.0074,0.0106,0.006,0.0039,0.0004,-0.0081,-0.0079,-0.0059,-0.0049,-0.0103,-0.0165,-0.0258,-0.0321,-0.0544,-0.0511,-0.0629,-0.0627,-0.0567,-0.0577,-0.0582,-0.0564,-0.0566,-0.0568,-0.0569,-0.057,-0.002,-0.0019,0.0019,0.0081,0.0113,0.0099,0.0053,0.0036,0.0016,0.0057,0.0059,0.0103,-0.0042,-0.01,-0.018,-0.0272,-0.0303,-0.042,-0.0432,-0.0445,-0.0403,-0.0337,-0.0282,-0.0283,-0.0283,-0.0283,-0.0284,0,-0.005,-0.0017,0.0022,0.0064,0.0073,0.0108,0.0068,0.005,0.0093,0.0149,0.0244,0.0139,0.0099,-0.0058,-0.0137,-0.0196,-0.0241,-0.0261,-0.0359,-0.0377,-0.0393,-0.0354,-0.0218,-0.0218,-0.0218,-0.0218,0,0,-0.005,-0.0036,-0.0017,0.0033,0.0081,0.0063,0.0061,0.0129,0.0156,0.0258,0.0281,0.0323,0.0087,-0.0004,-0.0104,-0.0161,-0.0246,-0.0155,-0.0197,-0.0317,-0.0332,-0.0469,-0.0423,0,0,0,0,0]}],[{"header":{"parameterUnit":"m.s-1","parameterCategory":2,"la1":30.2991,"la2":30.254,"lo1":-89.0895,"lo2":-89.0444,"dy":0.0017,"dx":0.0017,"nx":28,"ny":28,"refTime":"2024-07-15T03:00:00:Z","depth":"4","parameterNumber":2,"parameterNumberName":"U-component_of_CURRENTS"},"data":[0,0,0,0,0,0,0,0,0,0,0,0,0,0,0,0,0,0,0,0,0,0,0,0,0,0,0,0,0,0,0,0,0,0,0,0,0,0,0,0,0,0,0,0,0,0,0,0,0,0,0,0,0,0,0,0,0,0,-0.0166,-0.0166,0,-0.0201,-0.0201,-0.0202,-0.0194,-0.0193,-0.0193,-0.0192,-0.0235,-0.0237,-0.0239,0,0,0,0,0,0,0,0,0,0,0,0,0,-0.0158,-0.0158,-0.0166,-0.0166,-0.0166,-0.0201,-0.0201,-0.0202,-0.0194,-0.0193,-0.0192,-0.0191,-0.0234,-0.0237,-0.0239,0,0,0,0,0,0,0,0,0,0,0,0,0,-0.0176,-0.0158,-0.0166,-0.0165,-0.0165,-0.02,-0.0201,-0.0202,-0.0195,-0.0193,-0.0192,-0.0191,-0.0234,-0.0236,-0.0239,-0.0283,0,0,-0.0248,-0.025,0,0,0,0,0,0,0,0,-0.0175,-0.0177,-0.0165,-0.0165,-0.0165,-0.019,-0.0214,-0.0229,-0.0195,-0.0186,-0.0192,-0.019,-0.022,-0.0224,-0.0237,-0.0285,-0.0287,-0.0249,-0.025,-0.0252,-0.0252,0,0,0,0,0,0,0,-0.0174,-0.0175,-0.0182,-0.0165,-0.0165,-0.0185,-0.0186,-0.0217,-0.0212,-0.0187,-0.0186,-0.0186,-0.022,-0.0234,-0.0238,-0.0288,-0.0248,-0.0251,-0.0253,-0.0254,-0.0344,-0.0345,0,0,0,0,0,0,-0.0163,-0.0174,-0.0181,-0.0183,-0.0164,-0.0186,-0.0187,-0.0185,-0.0211,-0.0213,-0.0187,-0.0186,-0.023,-0.0234,-0.0239,-0.0256,-0.0252,-0.0254,-0.0256,-0.0344,-0.0344,-0.0345,0,0,0,0,0,0,-0.0162,-0.0163,-0.0179,-0.0177,-0.0181,-0.0186,-0.0185,-0.0186,-0.0187,-0.0211,-0.0213,-0.0184,-0.0229,-0.0235,-0.0262,-0.0259,-0.0256,-0.0258,-0.0343,-0.0344,-0.0345,-0.0314,0,0,0,0,0,0,-0.0162,-0.0163,-0.0162,-0.0177,-0.018,-0.0199,-0.0186,-0.0188,-0.0189,-0.0187,-0.021,-0.0213,-0.0228,-0.0257,-0.0265,-0.0263,-0.0261,-0.0342,-0.0343,-0.0344,-0.0314,-0.0313,-0.0313,0,0,0,0,0,-0.0162,-0.0169,-0.0162,-0.0163,-0.0178,-0.0199,-0.0204,-0.0205,-0.0189,-0.0199,-0.0209,-0.0212,-0.027,-0.0261,-0.0269,-0.0268,-0.0341,-0.0343,-0.0344,-0.0314,-0.0314,-0.0313,0,0,0,0,0,0,-0.017,-0.017,-0.0162,-0.0169,-0.018,-0.0197,-0.0208,-0.0202,-0.0218,-0.0211,-0.0226,-0.0232,-0.0254,-0.0272,-0.0261,-0.0299,-0.0304,-0.0307,-0.0278,-0.0278,-0.0278,-0.0259,-0.0263,0,0,0,0,0,-0.017,-0.0175,-0.0177,-0.0186,-0.0188,-0.0195,-0.0202,-0.0199,-0.0213,-0.0217,-0.0225,-0.0243,-0.0272,-0.0281,-0.0309,-0.0333,-0.0333,-0.0338,-0.0337,-0.0337,-0.0329,-0.0345,-0.0344,-0.035,-0.035,-0.035,0,0,-0.0178,-0.0178,-0.0181,-0.0189,-0.0197,-0.0207,-0.0197,-0.0206,-0.0212,-0.0222,-0.0231,-0.0246,-0.028,-0.0305,-0.0315,-0.0314,-0.0331,-0.0338,-0.0337,-0.033,-0.0346,-0.0346,-0.0345,-0.0351,-0.035,-0.035,0,0,-0.0197,-0.0193,-0.02,-0.0207,-0.0211,-0.0217,-0.0214,-0.0217,-0.0215,-0.0229,-0.0237,-0.0249,-0.0284,-0.0305,-0.0323,-0.0342,-0.0333,-0.0345,-0.0322,-0.0338,-0.0337,-0.0336,-0.0311,-0.0309,-0.0339,-0.0339,-0.0339,0,-0.0204,-0.0208,-0.0209,-0.0216,-0.0221,-0.0217,-0.0223,-0.0233,-0.024,-0.0239,-0.0228,-0.0266,-0.0288,-0.0322,-0.0317,-0.0339,-0.0328,-0.0318,-0.0335,-0.0334,-0.0334,-0.0309,-0.0307,-0.0338,-0.0338,-0.0338,-0.0338,0,-0.0226,-0.0225,-0.0234,-0.0237,-0.0246,-0.0255,-0.0257,-0.0256,-0.0243,-0.0243,-0.0255,-0.0278,-0.029,-0.0303,-0.0312,-0.0323,-0.0307,-0.0334,-0.0329,-0.0331,-0.0305,-0.0303,-0.0336,-0.0336,-0.0337,-0.0337,0,0,-0.025,-0.0246,-0.0247,-0.0245,-0.0252,-0.0261,-0.027,-0.0276,-0.0272,-0.0269,-0.0265,-0.0296,-0.0276,-0.0295,-0.0304,-0.0311,-0.0289,-0.0306,-0.0307,-0.0267,-0.0283,-0.0256,-0.0251,-0.0312,-0.0313,-0.0313,-0.0255,0,-0.0264,-0.0268,-0.0267,-0.0277,-0.028,-0.0277,-0.0287,-0.029,-0.0285,-0.028,-0.0288,-0.0288,-0.0285,-0.0272,-0.028,-0.0298,-0.0286,-0.03,-0.0299,-0.0298,-0.0264,-0.0249,-0.0313,-0.0254,-0.0253,-0.0253,-0.0253,0,-0.0284,-0.0281,-0.0282,-0.0282,-0.0283,-0.0283,-0.0285,-0.0291,-0.029,-0.028,-0.027,-0.0267,-0.0263,-0.0263,-0.0268,-0.027,-0.026,-0.027,-0.0269,-0.0254,-0.0268,-0.026,-0.0249,-0.0249,-0.025,-0.025,-0.025,0,-0.0296,-0.0296,-0.0291,-0.0292,-0.0292,-0.0283,-0.0278,-0.0279,-0.0282,-0.026,-0.0251,-0.025,-0.0237,-0.0241,-0.0236,-0.0243,-0.0242,-0.0266,-0.0229,-0.0225,-0.0279,-0.0281,-0.026,-0.026,-0.026,-0.026,-0.0261,0,-0.0311,-0.0314,-0.0286,-0.0286,-0.0278,-0.0273,-0.0266,-0.0258,-0.0252,-0.0255,-0.0233,-0.0235,-0.0229,-0.0228,-0.0227,-0.0209,-0.023,-0.0209,-0.0213,-0.0265,-0.0266,-0.0276,-0.0278,-0.0258,-0.0259,-0.0259,-0.0259,0,-0.0329,-0.0313,-0.0312,-0.0293,-0.028,-0.027,-0.0251,-0.0252,-0.0235,-0.0236,-0.022,-0.0212,-0.0199,-0.0197,-0.02,-0.0189,-0.0189,-0.0177,-0.0196,-0.0205,-0.0155,-0.0157,-0.0119,-0.0117,-0.0116,-0.0115,-0.0114,0,-0.0334,-0.0334,-0.0312,-0.0297,-0.028,-0.0258,-0.0249,-0.0236,-0.0238,-0.0233,-0.0238,-0.0211,-0.0204,-0.0168,-0.0179,-0.015,-0.0157,-0.0125,-0.0162,-0.0135,-0.0142,-0.0146,-0.0149,-0.0113,-0.0112,-0.0112,-0.0112,0,-0.0356,-0.0348,-0.0344,-0.0307,-0.0284,-0.0269,-0.0248,-0.0232,-0.0226,-0.0242,-0.0219,-0.019,-0.0175,-0.0156,-0.0118,-0.0118,-0.0134,-0.0114,-0.0116,-0.0151,-0.0127,-0.0136,-0.0141,-0.0108,-0.0108,-0.0109,-0.0109,0,-0.0376,-0.0373,-0.0356,-0.0316,-0.0293,-0.0248,-0.0239,-0.022,-0.0212,-0.0199,-0.0204,-0.0183,-0.0185,-0.014,-0.0132,-0.0099,-0.0099,-0.0082,-0.0087,-0.0091,-0.0111,-0.0079,-0.0035,0,0,0,0,0,-0.0392,-0.038,-0.0357,-0.0301,-0.0275,-0.0251,-0.0233,-0.0228,-0.0221,-0.0197,-0.0188,-0.0173,-0.0127,-0.0127,-0.0085,-0.0121,-0.0099,-0.0071,-0.0083,-0.0086,-0.0091,-0.0118,0,0,0,0,0,0,-0.04,-0.0398,-0.0364,-0.029,-0.0241,-0.021,-0.0186,-0.0182,-0.0163,-0.0162,-0.0142,-0.0158,-0.0125,-0.0149,-0.0085,-0.0081,-0.0078,-0.0071,-0.0069,-0.0084,-0.0088,-0.0091,-0.0121,0,0,0,0,0]},{"header":{"parameterUnit":"m.s-1","parameterCategory":2,"la1":30.2991,"la2":30.254,"lo1":-89.0895,"lo2":-89.0444,"dy":0.0017,"dx":0.0017,"nx":28,"ny":28,"refTime":"2024-07-15T03:00:00:Z","depth":"4","parameterNumber":3,"parameterNumberName":"V-component_of_CURRENTS"},"data":[0,0,0,0,0,0,0,0,0,0,0,0,0,0,0,0,0,0,0,0,0,0,0,0,0,0,0,0,0,0,0,0,0,0,0,0,0,0,0,0,0,0,0,0,0,0,0,0,0,0,0,0,0,0,0,0,0,0,-0.0436,-0.0436,0,-0.0437,-0.0437,-0.0437,-0.0496,-0.0498,-0.05,-0.0501,-0.0519,-0.0517,-0.0516,0,0,0,0,0,0,0,0,0,0,0,0,0,-0.0441,-0.044,-0.0436,-0.0436,-0.0436,-0.0437,-0.0437,-0.0437,-0.0496,-0.0498,-0.05,-0.0502,-0.0519,-0.0518,-0.0516,0,0,0,0,0,0,0,0,0,0,0,0,0,-0.0439,-0.044,-0.0436,-0.0467,-0.047,-0.0437,-0.0437,-0.0436,-0.0495,-0.0498,-0.0501,-0.0503,-0.0519,-0.0518,-0.0516,-0.0456,0,0,-0.0511,-0.051,0,0,0,0,0,0,0,0,-0.0439,-0.0438,-0.0462,-0.0465,-0.0468,-0.047,-0.0445,-0.0444,-0.0495,-0.0484,-0.0501,-0.0504,-0.0503,-0.0503,-0.0495,-0.0456,-0.0457,-0.0511,-0.051,-0.0509,-0.0509,0,0,0,0,0,0,0,-0.0439,-0.0438,-0.0435,-0.0462,-0.0465,-0.0465,-0.0468,-0.0445,-0.0479,-0.0485,-0.049,-0.0491,-0.0505,-0.0497,-0.0496,-0.0457,-0.0511,-0.0509,-0.0508,-0.0508,-0.0477,-0.0477,0,0,0,0,0,0,-0.0441,-0.0438,-0.0435,-0.0435,-0.0461,-0.0463,-0.0466,-0.0466,-0.0479,-0.0483,-0.0489,-0.0494,-0.0498,-0.0498,-0.0497,-0.0518,-0.0509,-0.0508,-0.0507,-0.0477,-0.0477,-0.0477,0,0,0,0,0,0,-0.0441,-0.044,-0.0435,-0.0438,-0.0438,-0.0461,-0.0459,-0.0464,-0.0499,-0.0482,-0.0487,-0.0524,-0.05,-0.0499,-0.0502,-0.0516,-0.0507,-0.0505,-0.0477,-0.0477,-0.0477,-0.0502,0,0,0,0,0,0,-0.0441,-0.044,-0.0457,-0.0438,-0.0438,-0.0437,-0.0457,-0.0463,-0.0494,-0.0501,-0.0512,-0.0514,-0.0502,-0.0505,-0.05,-0.0514,-0.0504,-0.0476,-0.0477,-0.0477,-0.0501,-0.0503,-0.0505,0,0,0,0,0,-0.0441,-0.0447,-0.0458,-0.0459,-0.0455,-0.0437,-0.0437,-0.0461,-0.0494,-0.0503,-0.0512,-0.0516,-0.0505,-0.0503,-0.0498,-0.0512,-0.0476,-0.0477,-0.0477,-0.05,-0.0503,-0.0505,0,0,0,0,0,0,-0.0455,-0.0453,-0.0465,-0.0471,-0.0467,-0.0449,-0.0465,-0.0479,-0.0492,-0.0514,-0.0507,-0.0508,-0.052,-0.0506,-0.0505,-0.0504,-0.0495,-0.0494,-0.0514,-0.0516,-0.0518,-0.0515,-0.0503,0,0,0,0,0,-0.0465,-0.0477,-0.0464,-0.0473,-0.0474,-0.0477,-0.0482,-0.0495,-0.0495,-0.0507,-0.0513,-0.0516,-0.0506,-0.0508,-0.0498,-0.0486,-0.0467,-0.0495,-0.0497,-0.0499,-0.0493,-0.0473,-0.0473,-0.0478,-0.0478,-0.0478,0,0,-0.0472,-0.0474,-0.0482,-0.0479,-0.0481,-0.0472,-0.0488,-0.0501,-0.0499,-0.0502,-0.052,-0.0525,-0.0506,-0.0501,-0.0505,-0.0499,-0.0487,-0.05,-0.0501,-0.0494,-0.0473,-0.0473,-0.0472,-0.0479,-0.0479,-0.0478,0,0,-0.0477,-0.0495,-0.0503,-0.0499,-0.0508,-0.0498,-0.051,-0.0511,-0.0525,-0.0526,-0.0534,-0.0545,-0.0534,-0.0519,-0.0508,-0.051,-0.0501,-0.0524,-0.0526,-0.0507,-0.0506,-0.0506,-0.0479,-0.0476,-0.0521,-0.0522,-0.0522,0,-0.0494,-0.0492,-0.0501,-0.0501,-0.05,-0.0513,-0.0509,-0.0506,-0.0512,-0.0515,-0.0542,-0.0537,-0.0534,-0.051,-0.0521,-0.0514,-0.0504,-0.052,-0.051,-0.0508,-0.0507,-0.048,-0.0476,-0.0523,-0.0523,-0.0523,-0.0522,0,-0.0485,-0.0497,-0.0499,-0.0502,-0.0501,-0.0501,-0.0492,-0.0505,-0.053,-0.0527,-0.0538,-0.0533,-0.0533,-0.0538,-0.0531,-0.0522,-0.0518,-0.0518,-0.0504,-0.0508,-0.0479,-0.0475,-0.0525,-0.0524,-0.0524,-0.0523,0,0,-0.0493,-0.0495,-0.0502,-0.0503,-0.0505,-0.0497,-0.0495,-0.0483,-0.049,-0.0509,-0.051,-0.0509,-0.0534,-0.0523,-0.0525,-0.0512,-0.05,-0.052,-0.0519,-0.0494,-0.0459,-0.0463,-0.0458,-0.0508,-0.0507,-0.0506,-0.0443,0,-0.0489,-0.0486,-0.0488,-0.0486,-0.0479,-0.0486,-0.0475,-0.0474,-0.0485,-0.0489,-0.0491,-0.0497,-0.0517,-0.0532,-0.0524,-0.0508,-0.049,-0.0517,-0.0459,-0.0456,-0.0459,-0.0453,-0.0504,-0.044,-0.0439,-0.0438,-0.0437,0,-0.048,-0.0478,-0.0476,-0.0473,-0.0474,-0.0476,-0.0474,-0.0466,-0.0463,-0.0475,-0.0487,-0.0497,-0.0487,-0.0509,-0.0475,-0.0498,-0.0484,-0.0467,-0.0464,-0.0454,-0.0451,-0.0434,-0.0428,-0.0429,-0.0429,-0.043,-0.0431,0,-0.0472,-0.0473,-0.0474,-0.0473,-0.0466,-0.0475,-0.0475,-0.0474,-0.0463,-0.0472,-0.0474,-0.0475,-0.0472,-0.0461,-0.0444,-0.0466,-0.0397,-0.0415,-0.0394,-0.0393,-0.0398,-0.0399,-0.038,-0.038,-0.038,-0.0381,-0.0381,0,-0.0456,-0.0464,-0.0477,-0.0475,-0.0475,-0.0478,-0.0481,-0.048,-0.0475,-0.0456,-0.0476,-0.0454,-0.0464,-0.0432,-0.0427,-0.0392,-0.038,-0.0387,-0.0377,-0.041,-0.0413,-0.0394,-0.0396,-0.0378,-0.0379,-0.0379,-0.038,0,-0.0449,-0.0459,-0.0462,-0.0469,-0.0474,-0.0478,-0.0478,-0.0471,-0.0471,-0.0447,-0.0448,-0.043,-0.0398,-0.0387,-0.0351,-0.0358,-0.0326,-0.0311,-0.0331,-0.0324,-0.0341,-0.0346,-0.0293,-0.0293,-0.0292,-0.0292,-0.0292,0,-0.044,-0.0442,-0.0462,-0.0464,-0.0475,-0.048,-0.0477,-0.0475,-0.0459,-0.0418,-0.0396,-0.0366,-0.0356,-0.0296,-0.0298,-0.0277,-0.0281,-0.0269,-0.0329,-0.0337,-0.0332,-0.0337,-0.0342,-0.0291,-0.0291,-0.0291,-0.0291,0,-0.0416,-0.0443,-0.0443,-0.045,-0.0459,-0.0457,-0.0453,-0.0425,-0.0406,-0.0407,-0.035,-0.0335,-0.0291,-0.0282,-0.0263,-0.0249,-0.0288,-0.0266,-0.0268,-0.0324,-0.0334,-0.0331,-0.0336,-0.029,-0.029,-0.029,-0.029,0,-0.0406,-0.0407,-0.0419,-0.0419,-0.0434,-0.0426,-0.0422,-0.0394,-0.0375,-0.0334,-0.0307,-0.0278,-0.0272,-0.0262,-0.0235,-0.0237,-0.0257,-0.0277,-0.0279,-0.028,-0.0311,-0.0324,-0.026,0,0,0,0,0,-0.038,-0.0377,-0.0379,-0.0379,-0.0398,-0.0413,-0.0397,-0.0388,-0.0357,-0.0319,-0.0316,-0.0279,-0.026,-0.0241,-0.0243,-0.0237,-0.0255,-0.0241,-0.028,-0.0283,-0.0285,-0.0326,0,0,0,0,0,0,-0.0358,-0.0366,-0.0364,-0.0352,-0.0353,-0.0369,-0.0364,-0.0346,-0.0322,-0.0297,-0.0281,-0.0297,-0.027,-0.0262,-0.0248,-0.0248,-0.0276,-0.0238,-0.0238,-0.0283,-0.0284,-0.0285,-0.0327,0,0,0,0,0]}]]